Location: Chakepay
(13.3931°S, 72.1925°W)
Time: 16:09:54
(UTC+00:00)

USA 267 - Pass Details

Date: 15 November 2019
Orbit: 1101 x 1106 km, 123.0° (Epoch: 12 November)

Event Time Altitude Azimuth Distance (km) Brightness Sun altitude
Rises 08:36:51 0° 34° (NE) 3,903 6.2 -22.1°
Reaches altitude 10° 08:39:19 10° 33° (NNE) 2,950 5.6 -21.5°
Maximum altitude 08:45:50 78° 307° (NW) 1,130 3.1 -20.1°
Drops below altitude 10° 08:52:24 10° 221° (SW) 2,972 5.4 -18.7°
Sets 08:54:54 0° 219° (SW) 3,934 6.0 -18.1°
